Regional Weather Roundup
Issued by NWS Cleveland, OH

Home | Current Version | Previous Version | Graphics & Text | Print | Product List | Glossary On
Versions: 1 2 3 4 5 6 7 8 9 10 11 12 13 14 15 16 17 18 19 20 21 22 23 24 25 26 27 28 29 30 31 32 33 34 35 36 37 38 39 40 41 42 43 44 45 46 47 48 49 50
000
ASUS41 KCLE 230302
RWRCLE
OHIO REGIONAL WEATHER ROUNDUP
NATIONAL WEATHER SERVICE CLEVELAND, OH
1000 PM EST WED NOV 22 2017

NOTE: "FAIR" INDICATES FEW OR NO CLOUDS BELOW 12,000 FEET WITH NO
SIGNIFICANT WEATHER AND/OR OBSTRUCTIONS TO VISIBILITY.

OHZ001>008-015>018-024>027-034-035-043-044-230400-
   NORTHWEST OHIO

CITY           SKY/WX    TMP DP  RH WIND       PRES   REMARKS
DEFIANCE       CLOUDY    26  21  81 CALM      30.25S
FINDLAY        CLOUDY    25  19  78 S5        30.24R WCI  19
TOLEDO EXPRESS CLOUDY    28  21  75 SW3       30.24S
TOLEDO EXEC    CLOUDY    28  21  75 SW5       30.25S WCI  23
LIMA           CLOUDY    26  21  81 S7        30.24R WCI  18
$$

OHZ009>014-019>023-028>033-038-089-230400-
   NORTHEAST OHIO

CITY           SKY/WX    TMP DP  RH WIND       PRES   REMARKS
CLE-HOPKINS    CLOUDY    31  20  63 SW8       30.26S WCI  23
CLE-LAKEFRONT  CLOUDY    32  19  58 SW9       30.23S WCI  24
CUY CO. ARPT   CLOUDY    34  23  64 SW6       30.22F WCI  29
LORAIN-ELYRIA  CLOUDY    27  15  61 S5        30.24S WCI  22
ASHTABULA      CLOUDY    31  24  75 SW3       30.21F
AKRON-CANTON   CLOUDY    30  18  60 CALM      30.22S
WOOSTER        CLOUDY    23  19  85 CALM      30.23
MANSFIELD      CLOUDY    25  18  74 CALM      30.22S
YOUNGSTOWN     FLURRIES  30  20  66 W5        30.20F WCI  25
$$

OHZ042-051>053-060>062-070>072-077>081-230400-
  SOUTHWEST OHIO

CITY           SKY/WX    TMP DP  RH WIND       PRES   REMARKS
CINC-COVINGTON CLEAR     31  24  75 E3        30.24F
CINC-LUNKEN    CLEAR     27  24  89 CALM      30.28F
HAMILTON       CLOUDY    24  22  91 CALM      30.26F
DAYTON         CLOUDY    26  21  81 E3        30.25S
WRIGHT-PAT AFB CLOUDY    29  20  69 CALM      30.24S
DAYTON GENERAL CLOUDY    29  21  72 E6        30.23F WCI  23
WILMINGTON     CLOUDY    26  22  84 CALM      30.24S
$$

OHZ036-037-039>041-045>050-054>059-063>069-073>076-082>088-230400-
  CENTRAL AND SOUTHEAST OHIO

CITY           SKY/WX    TMP DP  RH WIND       PRES   REMARKS
COLUMBUS       PTCLDY    30  21  69 E3        30.25S
OSU AIRPORT    CLOUDY    28  21  75 CALM      30.24S
BOLTON FIELD   CLEAR     26  23  89 CALM      30.25S
RICKENBACK AFB NOT AVBL
NEWARK         CLOUDY    28  19  69 CALM      30.24S
MARION         CLOUDY    26  19  74 CALM      30.25R
LANCASTER      CLOUDY    24  21  88 CALM      30.25S
ZANESVILLE     CLOUDY    30  20  66 CALM      30.24S
NEW PHILLY     NOT AVBL
$$




USA.gov is the U.S. government's official web portal to all federal, state and local government web resources and services.